Regional Weather Roundup
Issued by NWS

Home | Current Version | Previous Version | Text Only | Print | Product List | Glossary On
Versions: 1 2 3 4 5 6 7 8 9 10 11 12 13 14 15 16 17 18 19 20 21 22 23 24 25 26 27 28 29 30 31 32 33 34 35 36 37 38 39 40 41 42 43 44 45 46 47 48 49 50
000
ASUS43 KLSX 011007
RWRMO

WEATHER SUMMARY FOR MISSOURI
NATIONAL WEATHER SERVICE SPRINGFIELD MO
500 AM CDT TUE SEP 01 2015

NOTE: "FAIR" INDICATES FEW OR NO CLOUDS BELOW 12,000 FEET WITH NO
       SIGNIFICANT WEATHER AND/OR OBSTRUCTIONS TO VISIBILITY.
       CURRENT SKY AND/OR WEATHER CONDITIONS ARE NOT AVAILABLE FOR
       CHILLICOTHE AND FARMINGTON.

MOZ001>031-035>038-043-044-053-054-011100-
...NORTHERN AND WESTERN MISSOURI...

CITY           SKY/WX    TMP DP  RH WIND       PRES   REMARKS
KANSAS CTY INT CLEAR     73  68  84 S10       30.00S
KANSAS C DTWN  CLEAR     77  68  73 S9        29.99S
LEE`S SUMMIT   CLEAR     74  68  81 S8        30.02R
ST JOSEPH      CLEAR     71  69  93 S7        29.98S
CHILLICOTHE      N/A     69  67  93 CALM      30.02R
KIRKSVILLE     CLEAR     71  67  87 S6        30.04R

$$
MOZ066>068-077>081-088>096-101>105-011100-
...SOUTHWEST MISSOURI...

CITY           SKY/WX    TMP DP  RH WIND       PRES   REMARKS
SPRINGFIELD    CLEAR     71  66  84 S8        30.08R
JOPLIN         CLEAR     72  66  81 S8        30.06R

$$
MOZ032>034-039>042-045>050-055>058-069>072-011100-
...CENTRAL MISSOURI...

CITY           SKY/WX    TMP DP  RH WIND       PRES   REMARKS
COLUMBIA       CLEAR     70  68  93 S8        30.06R
JEFFERSON CITY CLEAR     72  68  87 E5        30.06R
ROLLA          CLEAR     71  68  90 S9        30.08R
SEDALIA        CLEAR     72  67  84 S7        30.05S
WHITEMAN AFB   CLEAR     70  67  90 S5        30.02S
WARRENSBURG    CLEAR     72  66  83 S6        30.02S
OSAGE BEACH    CLEAR     70  66  88 SE6       30.08R

$$
MOZ051-052-059>065-011100-
...EAST CENTRAL MISSOURI...

CITY           SKY/WX    TMP DP  RH WIND       PRES   REMARKS
ST LOUIS INTL  CLEAR     76  69  79 S5        30.08R
SPIRIT OF STL  CLEAR     70  70 100 CALM      30.06R FOG
ST CHARLES     CLEAR     70  70 100 E3        30.06R

$$
MOZ072>076-082>087-097>100-106>115-011100-
...SOUTH CENTRAL AND SOUTHEAST MISSOURI...

CITY           SKY/WX    TMP DP  RH WIND       PRES   REMARKS
CAPE GIRARDEAU CLEAR     66  66 100 SE3       30.09R
FARMINGTON     CLEAR     70  68  94 CALM      30.13R
POPLAR BLUFF   CLEAR     67  66  97 CALM      30.08R FOG
WEST PLAINS    CLEAR     70  67  90 CALM      30.12S

$$



USA.gov is the U.S. government's official web portal to all federal, state and local government web resources and services.